Volver al catálogo

CZ-6A DEB

ActivoSSO
NORAD 54461·DEBRIS·🇨🇳 China

Lanzado Nov 11, 2022 desde Taiyuan Satellite Launch Center

Loading…

Próximos Pases (próximas 24 horas)

TLE

ActualizadoSource: Space-Track

Época: Sep 14, 2026, 22:51 UTC

1 54461U 22151GM  26257.95270887  .00000293  00000-0  21606-3 0  9991
2 54461  99.0198 251.6645 0127329 154.5011 206.2508 13.99190578195547

Sigue CZ-6A DEB en tiempo real con AllMySat

Download on the App Store